TimeCST,TemperatureF,Dew PointF,Humidity,Sea Level PressureIn,VisibilityMPH,Wind Direction,Wind SpeedMPH,Gust SpeedMPH,PrecipitationIn,Events,Conditions,WindDirDegrees,DateUTC
12:00 AM,50.0,46.4,87,30.11,1.2,Calm,Calm,-,N/A,,Clear,0,2012-01-01 06:00:00
12:41 AM,50.0,44.6,82,30.13,1.0,Calm,Calm,-,N/A,,Haze,0,2012-01-01 06:41:00
12:53 AM,50.0,46.0,86,30.12,1.0,Calm,Calm,-,N/A,,Mist,0,2012-01-01 06:53:00
1:23 AM,48.2,46.4,93,30.14,1.0,Calm,Calm,-,N/A,,Mist,0,2012-01-01 07:23:00
1:33 AM,48.2,44.6,87,30.14,0.8,Calm,Calm,-,N/A,,Mist,0,2012-01-01 07:33:00
2:01 AM,53.6,46.4,77,30.20,0.8,North,8.1,20.7,N/A,,Haze,350,2012-01-01 08:01:00
2:04 AM,53.6,46.4,77,30.20,1.0,North,8.1,-,N/A,,Haze,360,2012-01-01 08:04:00
2:17 AM,57.2,46.4,67,30.21,3.0,NNW,6.9,-,N/A,,Haze,340,2012-01-01 08:17:00
2:53 AM,62.1,39.9,44,30.22,10.0,North,11.5,-,N/A,,Mostly Cloudy,360,2012-01-01 08:53:00
3:53 AM,60.1,30.0,32,30.25,10.0,North,13.8,21.9,N/A,,Clear,10,2012-01-01 09:53:00
4:53 AM,57.9,26.1,30,30.29,10.0,NNE,9.2,23.0,N/A,,Clear,20,2012-01-01 10:53:00
5:53 AM,55.9,26.1,32,30.32,10.0,North,18.4,25.3,N/A,,Clear,10,2012-01-01 11:53:00
6:53 AM,53.1,28.0,38,30.37,10.0,North,18.4,27.6,N/A,,Clear,10,2012-01-01 12:53:00
8:53 AM,53.1,30.9,43,30.46,10.0,North,11.5,20.7,N/A,,Clear,10,2012-01-01 14:53:00
9:53 AM,55.9,30.9,39,30.49,10.0,NNE,12.7,19.6,N/A,,Clear,20,2012-01-01 15:53:00
12:53 PM,63.0,28.0,27,30.45,10.0,NNE,20.7,27.6,N/A,,Clear,30,2012-01-01 18:53:00
1:53 PM,63.0,30.0,29,30.45,10.0,North,17.3,21.9,N/A,,Clear,360,2012-01-01 19:53:00
2:53 PM,64.0,28.9,27,30.45,10.0,NNE,13.8,19.6,N/A,,Clear,20,2012-01-01 20:53:00
3:53 PM,64.0,28.9,27,30.45,10.0,North,11.5,-,N/A,,Clear,360,2012-01-01 21:53:00
5:53 PM,59.0,28.0,31,30.51,10.0,North,6.9,-,N/A,,Clear,360,2012-01-01 23:53:00
6:53 PM,55.9,28.9,36,30.53,10.0,North,6.9,-,N/A,,Clear,360,2012-01-02 00:53:00
7:53 PM,53.1,28.9,40,30.55,10.0,North,4.6,-,N/A,,Clear,10,2012-01-02 01:53:00
8:53 PM,51.1,28.9,43,30.57,10.0,North,4.6,-,N/A,,Clear,360,2012-01-02 02:53:00
9:53 PM,50.0,28.9,44,30.58,10.0,North,4.6,-,N/A,,Clear,350,2012-01-02 03:53:00
11:53 PM,48.0,27.0,44,30.58,10.0,North,5.8,-,N/A,,Clear,360,2012-01-02 05:53:00